Weather History for Wink, TX

Change the Weather History Date:

Friday, February 21, 2014

  Actual Average Record
Temperature  
Mean Temperature 50 °F -  
Max Temperature 72 °F 63 °F 85 °F (1972)
Min Temperature 28 °F 34 °F 16 °F (1939)
Degree Days  
Heating Degree Days 15    
Moisture  
Dew Point 11 °F    
Average Humidity 22    
Maximum Humidity 36    
Minimum Humidity 8    
Precipitation  
Precipitation 0.00 in - - ()
Sea Level Pressure  
Sea Level Pressure 29.95 in    
Wind  
Wind Speed 5 mph (SE)    
Max Wind Speed 15 mph    
Max Gust Speed -    
Visibility 10 miles    
Events      
Averages and records for this station are not official NWS values.
T = Trace of Precipitation, MM = Missing Value Source: NWS Daily Summary

Daily Weather History Graph

Daily Weather History Graph

Search for Another Location

Airport:

Trip Planner

Search our weather history database for the weather conditions in past years. The results will help you decide how hot, cold, wet, or windy it might be!

Date:

Astronomy

Feb. 21, 2014 Rise Set
Actual Time 7:28 AM CST 6:44 PM CST
Civil Twilight 7:03 AM CST 7:09 PM CST
Nautical Twilight 6:35 AM CST 7:37 PM CST
Astronomical Twilight 6:07 AM CST 8:05 PM CST
Moon 12:16 AM CST (2/21) 11:19 AM CST (2/21)
Length of Visible Light 12h 05m
Length of Day
11h 15m
Waning Gibbous, 60% of the Moon is Illuminated
Feb 21
Waning Gibbous
Feb 22
Last Quarter
Mar 1
New
Mar 8
First Quarter
Mar 16
Full

Hourly Weather History & Observations

Time (CST) Temp. Windchill Dew Point Humidity Pressure Visibility Wind Dir Wind Speed Gust Speed Precip Events Conditions
12:53 AM 35.1 °F - -2.9 °F 20% 30.06 in 10.0 mi Calm Calm - N/A   Clear
1:53 AM 32.0 °F - -2.0 °F 23% 30.06 in 10.0 mi Calm Calm - N/A   Clear
2:53 AM 30.9 °F 23.5 °F -2.0 °F 24% 30.05 in 10.0 mi North 8.1 mph - N/A   Clear
3:53 AM 30.9 °F 25.2 °F -2.9 °F 23% 30.04 in 10.0 mi NNW 5.8 mph - N/A   Clear
4:53 AM 28.9 °F 22.8 °F -2.0 °F 26% 30.05 in 10.0 mi North 5.8 mph - N/A   Clear
5:53 AM 28.0 °F 21.7 °F -0.9 °F 29% 30.06 in 10.0 mi North 5.8 mph - N/A   Clear
6:53 AM 28.0 °F 24.2 °F -0.9 °F 29% 30.06 in 10.0 mi East 3.5 mph - N/A   Clear
7:53 AM 28.0 °F 22.8 °F 1.9 °F 33% 30.07 in 10.0 mi NNE 4.6 mph - N/A   Clear
8:53 AM 44.1 °F 42.5 °F 15.1 °F 31% 30.06 in 10.0 mi East 3.5 mph - N/A   Clear
9:53 AM 50.0 °F - 19.9 °F 31% 30.05 in 10.0 mi SE 15.0 mph - N/A   Clear
10:53 AM 55.0 °F - 19.9 °F 25% 30.03 in 10.0 mi SSE 12.7 mph - N/A   Clear
11:53 AM 61.0 °F - 14.0 °F 16% 29.99 in 10.0 mi South 11.5 mph - N/A   Clear
12:53 PM 68.0 °F - 14.0 °F 12% 29.94 in 10.0 mi South 10.4 mph - N/A   Clear
1:53 PM 69.1 °F - 9.0 °F 10% 29.91 in 10.0 mi SSW 9.2 mph - N/A   Clear
2:53 PM 70.0 °F - 9.0 °F 9% 29.87 in 10.0 mi SSW 5.8 mph - N/A   Clear
3:53 PM 72.0 °F - 8.1 °F 8% 29.84 in 10.0 mi South 6.9 mph - N/A   Clear
4:53 PM 72.0 °F - 9.0 °F 9% 29.82 in 10.0 mi SSE 9.2 mph - N/A   Clear
5:53 PM 70.0 °F - 18.0 °F 14% 29.82 in 10.0 mi SE 10.4 mph - N/A   Clear
6:53 PM 63.0 °F - 18.0 °F 18% 29.84 in 10.0 mi SE 6.9 mph - N/A   Clear
7:53 PM 59.0 °F - 19.9 °F 22% 29.86 in 10.0 mi NE 5.8 mph - N/A   Clear
8:53 PM 59.0 °F - 21.0 °F 23% 29.85 in 10.0 mi Calm Calm - N/A   Clear
9:53 PM 54.0 °F - 21.9 °F 29% 29.85 in 10.0 mi SE 5.8 mph - N/A   Clear
10:53 PM 54.0 °F - 24.1 °F 31% 29.84 in 10.0 mi SE 10.4 mph - N/A   Clear
11:53 PM 50.0 °F - 24.1 °F 36% 29.84 in 10.0 mi SSE 5.8 mph - N/A   Clear